This is the latest recevied weather packets stored in our database for station/object KD8PH. If no packets are shown the sender has not sent any weather packets the latest 10 day(s).
| Time | Temp. | Humidity | Pressure | Rain* | Wind** | Luminosity | Snow |
|---|---|---|---|---|---|---|---|
| 1777530937 | 14.44° C | 91% | 1011.3 hPa | 0.51 mm | - | - | - |
| 1777530341 | 14.44° C | 90% | 1011.6 hPa | 0.76 mm | - | - | - |
| 1777529734 | 15° C | 90% | 1011.5 hPa | 0.51 mm | - | - | - |
| 1777529153 | 15° C | 89% | 1011.7 hPa | 0.51 mm | - | - | - |
| 1777528535 | 16.11° C | 89% | 1012.5 hPa | 0.51 mm | - | - | - |
| 1777527937 | 16.11° C | 88% | 1011.6 hPa | 0.25 mm | - | - | - |
| 1777527338 | 16.67° C | 88% | 1011 hPa | 0.25 mm | - | - | - |
| 1777526740 | 17.22° C | 87% | 1011.3 hPa | 0 mm | - | - | - |
| 1777526138 | 17.78° C | 84% | 1011.3 hPa | 0 mm | - | - | - |
| 1777525544 | 18.33° C | 83% | 1010.5 hPa | 0 mm | - | - | - |
| 1777524934 | 18.89° C | 81% | 1009.9 hPa | 0 mm | - | - | - |
| 1777524340 | 18.89° C | 80% | 1009.5 hPa | 0 mm | - | - | - |
| 1777523759 | 19.44° C | 81% | 1009.8 hPa | 0 mm | - | - | - |
| 1777523145 | 19.44° C | 81% | 1009.9 hPa | 0 mm | - | - | - |
| 1777522559 | 19.44° C | 81% | 1010.2 hPa | 0 mm | - | - | - |
| 1777521946 | 19.44° C | 81% | 1010.5 hPa | 0 mm | - | - | - |
| 1777521358 | 19.44° C | 81% | 1010.7 hPa | 0.25 mm | - | - | - |
| 1777520743 | 20° C | 80% | 1010.8 hPa | 0.25 mm | - | - | - |
| 1777520140 | 20° C | 81% | 1010.9 hPa | 0.25 mm | - | - | - |
| 1777519536 | 20° C | 80% | 1010.8 hPa | 0.25 mm | - | - | - |
| 1777518939 | 20.56° C | 80% | 1010.8 hPa | 0.25 mm | - | - | - |
| 1777518351 | 20.56° C | 79% | 1010.7 hPa | 0.25 mm | - | - | - |
| 1777517752 | 20.56° C | 79% | 1010.8 hPa | 0 mm | - | - | - |
| 1777517142 | 20.56° C | 80% | 1010.8 hPa | 0 mm | - | - | - |
| 1777516534 | 21.11° C | 80% | 1010.5 hPa | 0 mm | - | - | - |
* Rain latest hour (hover to see other rain measurements)
** Current wind speed in m/s (hover to see current wind gust speed)